Вернуться в каталог

ASIASAT 2 PKM

АктивенСвязьHEO
NORAD 23725·ROCKET BODY·🇨🇳 China

Запущен Nov 28, 1995 с Xichang Satellite Launch Center

Loading…

Ближайшие Пролёты (ближайшие 24 часа)

TLE

СвежийSource: Space-Track

Эпоха: Sep 13, 2026, 23:06 UTC

1 23725U 95064C   26256.96271459  .00004492  00000-0  58832-3 0  9995
2 23725  25.7098 170.3898 5505568 196.1130 135.1213  4.82183511451899

Отслеживайте ASIASAT 2 PKM в реальном времени с AllMySat

Download on the App Store